Location: McFarlands Corners
(41.4117°N, 81.3382°W)
Time: 17:18:06
(UTC+00:00)

Vanguard 1 Rocket - Pass Details

Date: 19 February 2026
Orbit: 653 x 4214 km, 34.3° (Epoch: 8 March)

Event Time Altitude Azimuth Distance (km) Brightness Sun altitude
Rises 17:36:36 0° 224° (SW) 3,781 11.1 37.5°
Reaches altitude 10° 17:38:55 10° 215° (SW) 3,103 11.0 37.5°
Maximum altitude 17:46:10 40° 148° (SSE) 2,374 10.9 37.5°
Drops below altitude 10° 17:59:22 10° 86° (E) 5,602 11.4 37.3°
Sets 18:05:16 0° 81° (E) 7,200 11.8 37.2°
